[[{"header":{"parameterUnit":"m.s-1","parameterCategory":1,"la1":30.2991,"la2":30.254,"lo1":-89.0895,"lo2":-89.0444,"dy":0.0017,"dx":0.0017,"nx":28,"ny":28,"refTime":"2024-03-26T21:00:00:Z","depth":0,"parameterNumber":2,"parameterNumberName":"U-component_of_WINDS"},"data":[0,0,0,0,0,0,0,0,0,0,0,0,0,0,0,0,0,0,0,0,0,0,0,0,0,0,0,0,0,0,0,0,0,0,0,0,0,0,0,0,0,0,0,0,0,0,0,0,0,0,0,0,0,0,0,0,0,0,-0.3363,-0.3365,0,-0.3475,-0.3476,-0.3477,-0.3531,-0.3531,-0.3531,-0.3531,-0.3648,-0.3651,-0.3655,0,0,0,0,0,0,0,0,0,0,0,0,0,-0.32,-0.3203,-0.3363,-0.3365,-0.3366,-0.3474,-0.3476,-0.3477,-0.3531,-0.3531,-0.3531,-0.3531,-0.3647,-0.3651,-0.3655,0,0,0,0,0,0,0,0,0,0,0,0,0,-0.3287,-0.3204,-0.3363,-0.3406,-0.3411,-0.3474,-0.3476,-0.3478,-0.3531,-0.3531,-0.3531,-0.3531,-0.3646,-0.3651,-0.3655,-0.3686,0,0,-0.367,-0.3672,0,0,0,0,0,0,0,0,-0.3282,-0.3293,-0.3398,-0.3403,-0.3409,-0.3489,-0.3462,-0.3548,-0.3531,-0.3485,-0.3531,-0.3531,-0.3596,-0.3604,-0.3626,-0.3691,-0.3696,-0.367,-0.3673,-0.3675,-0.3677,0,0,0,0,0,0,0,-0.3276,-0.3289,-0.3408,-0.34,-0.3406,-0.342,-0.3433,-0.3478,-0.354,-0.3489,-0.3494,-0.3506,-0.3598,-0.3621,-0.3629,-0.3698,-0.367,-0.3674,-0.3677,-0.3679,-0.3794,-0.3794,0,0,0,0,0,0,-0.3263,-0.3283,-0.3404,-0.3411,-0.3344,-0.3423,-0.3437,-0.3463,-0.3539,-0.3551,-0.3506,-0.3508,-0.3613,-0.3623,-0.3633,-0.3674,-0.3675,-0.368,-0.3682,-0.3794,-0.3794,-0.3795,0,0,0,0,0,0,-0.3259,-0.3273,-0.3399,-0.3348,-0.3365,-0.3426,-0.3455,-0.3465,-0.3488,-0.3551,-0.3563,-0.3517,-0.3613,-0.3626,-0.3672,-0.3678,-0.3682,-0.3686,-0.3794,-0.3794,-0.3794,-0.3755,0,0,0,0,0,0,-0.3254,-0.3271,-0.3283,-0.3348,-0.3368,-0.3436,-0.3455,-0.3468,-0.3495,-0.3499,-0.3565,-0.3576,-0.3614,-0.3665,-0.3677,-0.3685,-0.369,-0.3794,-0.3794,-0.3794,-0.3756,-0.3754,-0.3752,0,0,0,0,0,-0.3248,-0.3268,-0.3283,-0.3297,-0.3383,-0.3436,-0.3447,-0.3489,-0.3496,-0.3508,-0.3549,-0.3574,-0.3675,-0.3669,-0.3683,-0.3693,-0.3793,-0.3794,-0.3794,-0.3757,-0.3754,-0.3752,0,0,0,0,0,0,-0.3204,-0.3278,-0.3295,-0.3337,-0.3379,-0.3445,-0.3462,-0.3486,-0.3528,-0.353,-0.3582,-0.3596,-0.3637,-0.367,-0.3661,-0.3726,-0.3737,-0.374,-0.3703,-0.3702,-0.37,-0.3691,-0.3694,0,0,0,0,0,-0.3198,-0.3234,-0.3297,-0.3328,-0.3348,-0.3401,-0.3425,-0.3454,-0.3501,-0.352,-0.3564,-0.3609,-0.3651,-0.3678,-0.3721,-0.376,-0.3776,-0.3774,-0.3772,-0.377,-0.3773,-0.3796,-0.3796,-0.3796,-0.3796,-0.3796,0,0,-0.3189,-0.3233,-0.3253,-0.332,-0.3356,-0.3392,-0.3416,-0.3454,-0.3481,-0.3526,-0.3571,-0.3605,-0.3659,-0.3702,-0.3723,-0.373,-0.3776,-0.3771,-0.3769,-0.3773,-0.3796,-0.3796,-0.3796,-0.3796,-0.3796,-0.3796,0,0,-0.3189,-0.3226,-0.3256,-0.3291,-0.3346,-0.3381,-0.3388,-0.3449,-0.3473,-0.3519,-0.3553,-0.3587,-0.3659,-0.3696,-0.3724,-0.3737,-0.3762,-0.3749,-0.3739,-0.3761,-0.3761,-0.3762,-0.3766,-0.3767,-0.3752,-0.3751,-0.3751,0,-0.3171,-0.3226,-0.3268,-0.3304,-0.3332,-0.3372,-0.3403,-0.3436,-0.3502,-0.3521,-0.3527,-0.3617,-0.3657,-0.3708,-0.3711,-0.3733,-0.3743,-0.3742,-0.3758,-0.3758,-0.3759,-0.3764,-0.3766,-0.375,-0.375,-0.375,-0.375,0,-0.32,-0.3237,-0.3255,-0.3316,-0.3346,-0.3379,-0.3427,-0.3453,-0.3478,-0.3513,-0.3559,-0.3607,-0.366,-0.3674,-0.37,-0.373,-0.3732,-0.3748,-0.376,-0.3757,-0.3762,-0.3765,-0.3747,-0.3748,-0.3748,-0.3749,0,0,-0.3177,-0.326,-0.3266,-0.3293,-0.3356,-0.3386,-0.342,-0.347,-0.3491,-0.3535,-0.3566,-0.3625,-0.3639,-0.3671,-0.3701,-0.372,-0.3727,-0.3734,-0.3736,-0.3731,-0.3763,-0.3751,-0.3752,-0.3744,-0.3744,-0.3745,-0.3758,0,-0.3187,-0.3249,-0.3288,-0.3335,-0.337,-0.3409,-0.3439,-0.348,-0.3513,-0.3549,-0.3585,-0.3626,-0.3642,-0.3661,-0.3682,-0.3722,-0.3735,-0.3722,-0.3774,-0.3775,-0.3759,-0.3755,-0.3743,-0.3753,-0.376,-0.3761,-0.3761,0,-0.3206,-0.3247,-0.3297,-0.3355,-0.3371,-0.3397,-0.3446,-0.3479,-0.3527,-0.355,-0.3584,-0.3615,-0.3653,-0.3661,-0.3715,-0.3705,-0.3729,-0.3752,-0.3753,-0.376,-0.3768,-0.3762,-0.3758,-0.3759,-0.3765,-0.3765,-0.3765,0,-0.3184,-0.3252,-0.3291,-0.3314,-0.3382,-0.3399,-0.3429,-0.3477,-0.3504,-0.3546,-0.3565,-0.3612,-0.3638,-0.3674,-0.3716,-0.3718,-0.3766,-0.3777,-0.3786,-0.3785,-0.3795,-0.3794,-0.3794,-0.3809,-0.3809,-0.3809,-0.3809,0,-0.3191,-0.3221,-0.3282,-0.3306,-0.334,-0.3384,-0.3417,-0.345,-0.3492,-0.3523,-0.3559,-0.3588,-0.3642,-0.3678,-0.3711,-0.3751,-0.3763,-0.3782,-0.3791,-0.3779,-0.3777,-0.3796,-0.3796,-0.381,-0.381,-0.381,-0.381,0,-0.3173,-0.3215,-0.326,-0.332,-0.3336,-0.3358,-0.341,-0.3435,-0.3469,-0.3508,-0.352,-0.3574,-0.3617,-0.3663,-0.3723,-0.3745,-0.3784,-0.3796,-0.3767,-0.3772,-0.3778,-0.3777,-0.3791,-0.3795,-0.3807,-0.3806,-0.3806,0,-0.3175,-0.3198,-0.326,-0.3283,-0.3311,-0.3347,-0.3375,-0.3419,-0.3447,-0.3502,-0.3521,-0.3567,-0.3606,-0.3674,-0.3719,-0.3765,-0.3779,-0.378,-0.3786,-0.3773,-0.3779,-0.3777,-0.3779,-0.3779,-0.3778,-0.3778,-0.3778,0,-0.3173,-0.3193,-0.323,-0.3275,-0.3306,-0.3344,-0.3383,-0.34,-0.3452,-0.3481,-0.3525,-0.3555,-0.3615,-0.3661,-0.3712,-0.3743,-0.3769,-0.3775,-0.378,-0.3768,-0.3751,-0.376,-0.3762,-0.3775,-0.3775,-0.3776,-0.3776,-0.3776,-0.3166,-0.3187,-0.3234,-0.3274,-0.3308,-0.3343,-0.3369,-0.3406,-0.3443,-0.3495,-0.3519,-0.3563,-0.3611,-0.3681,-0.3712,-0.3748,-0.3755,-0.3762,-0.3764,-0.3764,-0.3761,-0.3744,-0.3757,-0.3757,-0.3757,-0.3758,-0.3758,0,-0.3166,-0.3197,-0.3234,-0.3287,-0.3318,-0.3338,-0.3382,-0.3408,-0.3446,-0.3487,-0.3524,-0.3575,-0.3619,-0.3667,-0.3714,-0.3733,-0.3746,-0.3744,-0.3743,-0.375,-0.3752,-0.3743,-0.3732,-0.3732,-0.3732,-0.3732,-0.3732,-0.3732,-0.317,-0.3208,-0.3233,-0.3288,-0.332,-0.3362,-0.3385,-0.3418,-0.3451,-0.3506,-0.3542,-0.3572,-0.3616,-0.3666,-0.3708,-0.3721,-0.3736,-0.3731,-0.3747,-0.3748,-0.375,-0.3752,-0.3744,-0.3733,-0.3733,-0.3742,-0.3742,-0.3742]},{"header":{"parameterUnit":"m.s-1","parameterCategory":1,"la1":30.2991,"la2":30.254,"lo1":-89.0895,"lo2":-89.0444,"dy":0.0017,"dx":0.0017,"nx":28,"ny":28,"refTime":"2024-03-26T21:00:00:Z","depth":0,"parameterNumber":3,"parameterNumberName":"V-component_of_WINDS"},"data":[0,0,0,0,0,0,0,0,0,0,0,0,0,0,0,0,0,0,0,0,0,0,0,0,0,0,0,0,0,0,0,0,0,0,0,0,0,0,0,0,0,0,0,0,0,0,0,0,0,0,0,0,0,0,0,0,0,0,-5.4975,-5.4976,0,-5.5019,-5.502,-5.502,-5.4977,-5.4975,-5.4973,-5.4972,-5.5015,-5.5018,-5.5021,0,0,0,0,0,0,0,0,0,0,0,0,0,-5.4853,-5.4856,-5.4975,-5.4976,-5.4976,-5.5019,-5.502,-5.5021,-5.4977,-5.4975,-5.4973,-5.4971,-5.5014,-5.5018,-5.5021,0,0,0,0,0,0,0,0,0,0,0,0,0,-5.4903,-5.4856,-5.4975,-5.496,-5.4959,-5.5019,-5.502,-5.5021,-5.4978,-5.4975,-5.4972,-5.497,-5.5013,-5.5017,-5.5022,-5.5098,0,0,-5.5034,-5.5036,0,0,0,0,0,0,0,0,-5.49,-5.4907,-5.4962,-5.4961,-5.496,-5.499,-5.4993,-5.5047,-5.4978,-5.497,-5.4972,-5.4969,-5.5009,-5.5013,-5.5027,-5.51,-5.5102,-5.5034,-5.5037,-5.5039,-5.504,0,0,0,0,0,0,0,-5.4896,-5.4905,-5.4993,-5.4962,-5.4962,-5.4951,-5.4955,-5.5003,-5.5003,-5.4971,-5.4968,-5.4974,-5.5008,-5.5023,-5.5028,-5.5103,-5.5034,-5.5038,-5.5041,-5.5042,-5.5245,-5.5247,0,0,0,0,0,0,-5.4895,-5.4902,-5.4991,-5.4994,-5.4923,-5.4955,-5.496,-5.4983,-5.5003,-5.5003,-5.4976,-5.4972,-5.5017,-5.5023,-5.5029,-5.5123,-5.5039,-5.5043,-5.5045,-5.5242,-5.5245,-5.5248,0,0,0,0,0,0,-5.4892,-5.4903,-5.4989,-5.4947,-5.4958,-5.496,-5.4986,-5.4985,-5.5,-5.5007,-5.5006,-5.4991,-5.5016,-5.5023,-5.5082,-5.5123,-5.5044,-5.5048,-5.5238,-5.5243,-5.5247,-5.5309,0,0,0,0,0,0,-5.4889,-5.4903,-5.4932,-5.4948,-5.496,-5.5042,-5.4989,-5.4988,-5.5008,-5.5003,-5.5021,-5.5022,-5.5014,-5.5076,-5.5086,-5.5128,-5.5051,-5.5235,-5.524,-5.5245,-5.5303,-5.5315,-5.5325,0,0,0,0,0,-5.4885,-5.4946,-5.4933,-5.4944,-5.4996,-5.5044,-5.5051,-5.5041,-5.5011,-5.5041,-5.5045,-5.5021,-5.5117,-5.5083,-5.5094,-5.5137,-5.5232,-5.5239,-5.5245,-5.5298,-5.5312,-5.5324,0,0,0,0,0,0,-5.4932,-5.4948,-5.4934,-5.5002,-5.5023,-5.5037,-5.5073,-5.5056,-5.5085,-5.5079,-5.5065,-5.507,-5.5133,-5.514,-5.5102,-5.5214,-5.517,-5.5179,-5.5207,-5.522,-5.5231,-5.5228,-5.5055,0,0,0,0,0,-5.4951,-5.4989,-5.5,-5.506,-5.5071,-5.5071,-5.5091,-5.5083,-5.5103,-5.5111,-5.5119,-5.5139,-5.5174,-5.5197,-5.523,-5.5304,-5.5308,-5.5339,-5.535,-5.5359,-5.5367,-5.5409,-5.5424,-5.527,-5.527,-5.527,0,0,-5.499,-5.5003,-5.5027,-5.507,-5.5085,-5.5125,-5.5078,-5.5121,-5.5151,-5.5117,-5.5174,-5.5181,-5.5203,-5.5271,-5.5301,-5.5279,-5.5411,-5.5367,-5.5374,-5.5378,-5.5418,-5.5432,-5.5445,-5.5274,-5.5273,-5.5273,0,0,-5.5081,-5.5094,-5.5147,-5.5163,-5.5186,-5.5186,-5.5199,-5.5217,-5.5221,-5.5278,-5.5254,-5.5289,-5.5349,-5.5366,-5.5382,-5.5484,-5.5463,-5.5495,-5.5551,-5.5593,-5.5605,-5.5616,-5.5653,-5.5667,-5.5502,-5.5503,-5.5503,0,-5.5126,-5.5185,-5.5175,-5.5222,-5.5242,-5.5214,-5.5268,-5.5284,-5.5316,-5.5331,-5.5306,-5.5383,-5.5395,-5.5468,-5.5493,-5.5507,-5.5522,-5.5492,-5.5604,-5.5615,-5.5624,-5.5661,-5.5675,-5.5506,-5.5506,-5.5506,-5.5505,0,-5.5241,-5.5283,-5.5322,-5.5356,-5.5381,-5.543,-5.5428,-5.5454,-5.5444,-5.5447,-5.5507,-5.5521,-5.5557,-5.5574,-5.5563,-5.5646,-5.5632,-5.5606,-5.5561,-5.5643,-5.5677,-5.569,-5.5512,-5.551,-5.5509,-5.5508,0,0,-5.5361,-5.5392,-5.5406,-5.5423,-5.5448,-5.548,-5.5529,-5.5566,-5.5589,-5.5613,-5.5655,-5.5708,-5.5685,-5.5704,-5.5695,-5.5732,-5.5814,-5.5701,-5.5702,-5.5723,-5.5908,-5.5928,-5.5944,-5.58,-5.5803,-5.5805,-5.5907,0,-5.5455,-5.5541,-5.5535,-5.5617,-5.5656,-5.5632,-5.5675,-5.5696,-5.57,-5.5735,-5.5739,-5.5778,-5.5743,-5.5755,-5.579,-5.5796,-5.5851,-5.5789,-5.584,-5.5842,-5.5836,-5.5962,-5.5983,-5.6078,-5.592,-5.5922,-5.5923,0,-5.5575,-5.5605,-5.5692,-5.5713,-5.573,-5.5769,-5.5803,-5.5836,-5.5859,-5.586,-5.5883,-5.587,-5.592,-5.5875,-5.5945,-5.5903,-5.5924,-5.593,-5.5934,-5.5939,-5.5888,-5.5972,-5.6108,-5.6123,-5.5944,-5.5942,-5.5941,0,-5.5657,-5.5719,-5.5779,-5.5794,-5.582,-5.5849,-5.5861,-5.5882,-5.5905,-5.5935,-5.595,-5.5985,-5.6005,-5.6033,-5.6029,-5.5996,-5.6102,-5.6055,-5.6105,-5.6105,-5.6128,-5.6127,-5.6272,-5.614,-5.614,-5.6139,-5.6139,0,-5.5762,-5.5816,-5.5817,-5.5854,-5.5915,-5.5907,-5.5967,-5.5976,-5.5996,-5.6035,-5.6015,-5.6052,-5.6045,-5.6082,-5.608,-5.614,-5.6148,-5.6151,-5.615,-5.6153,-5.6153,-5.6167,-5.6161,-5.6143,-5.6142,-5.6142,-5.6141,0,-5.5864,-5.5866,-5.5931,-5.5952,-5.5959,-5.6003,-5.602,-5.6056,-5.606,-5.611,-5.6121,-5.6127,-5.617,-5.6169,-5.6218,-5.6216,-5.629,-5.6281,-5.6283,-5.6282,-5.6332,-5.6328,-5.6491,-5.6513,-5.6366,-5.6367,-5.6369,0,-5.5932,-5.5973,-5.6,-5.6025,-5.604,-5.608,-5.6105,-5.61,-5.6126,-5.6157,-5.619,-5.6231,-5.6264,-5.6334,-5.6343,-5.6381,-5.6373,-5.6428,-5.6378,-5.6382,-5.6376,-5.6374,-5.6379,-5.6438,-5.6439,-5.644,-5.6442,0,-5.6052,-5.6052,-5.6089,-5.6127,-5.6157,-5.6186,-5.6213,-5.6235,-5.6233,-5.6263,-5.6308,-5.6334,-5.6385,-5.6427,-5.6464,-5.6476,-5.646,-5.6457,-5.6471,-5.6475,-5.6476,-5.6478,-5.6311,-5.6453,-5.6452,-5.6451,-5.6451,-5.645,-5.614,-5.6177,-5.6202,-5.6244,-5.6264,-5.6291,-5.6326,-5.6336,-5.6373,-5.6415,-5.6409,-5.646,-5.6484,-5.6532,-5.6549,-5.6588,-5.6569,-5.6588,-5.6594,-5.6599,-5.6605,-5.6469,-5.6595,-5.6594,-5.6594,-5.6594,-5.6593,0,-5.6261,-5.6277,-5.6316,-5.6355,-5.6389,-5.6371,-5.6401,-5.643,-5.6475,-5.6499,-5.6533,-5.6586,-5.6627,-5.664,-5.668,-5.671,-5.6703,-5.6721,-5.6719,-5.6723,-5.6619,-5.6604,-5.6726,-5.6726,-5.6726,-5.6726,-5.6726,-5.6726,-5.6328,-5.6391,-5.6394,-5.6467,-5.6482,-5.6532,-5.6551,-5.6575,-5.6595,-5.6656,-5.669,-5.6699,-5.672,-5.6762,-5.68,-5.6802,-5.6819,-5.684,-5.684,-5.6743,-5.673,-5.6717,-5.6703,-5.6843,-5.6843,-5.694,-5.6941,-5.6942]}]]